{"data":{"norad_id":35752,"epoch":"2026-05-24T22:34:55.824096Z","epoch_age_seconds":86934,"freshness":"FRESH","line1":"1 35752U 09043A   26144.94092389 -.00000108  00000+0  00000+0 0  9997","line2":"2 35752  56.1962  28.3646 0053517  82.2594 100.2405  2.00555530122892","mean_motion":2.0055553,"eccentricity":0.0053517,"inclination_deg":56.1962,"raan_deg":28.3646,"arg_perigee_deg":82.2594,"mean_anomaly_deg":100.2405,"bstar":0,"rev_number":12289,"period_min":718.00563165723,"perigee_km":20040.776831882,"apogee_km":20325.070488553,"semimajor_km":26561.060660218,"source":"CELESTRAK","updated_at":"2026-05-25T13:38:23.730802Z"}}